Regional Weather Roundup
Issued by NWS

Home | Current Version | Previous Version | Text Only | Print | Product List | Glossary On
Versions: 1 2 3 4 5 6 7 8 9 10 11 12 13 14 15 16 17 18 19 20 21 22 23 24 25 26 27 28 29 30 31 32 33 34 35 36 37 38 39 40 41 42 43 44 45 46 47 48 49 50
000
ASUS42 KTBW 281510
RWRFL
FLORIDA REGIONAL WEATHER ROUNDUP
NATIONAL WEATHER SERVICE TAMPA BAY RUSKIN FL
1000 AM EST SUN DEC 28 2014

NOTE: "FAIR" INDICATES FEW OR NO CLOUDS BELOW 12,000 FEET WITH NO
SIGNIFICANT WEATHER AND/OR OBSTRUCTIONS TO VISIBILITY.


FLZ001>010-012>015-112-114-115-281600-
PANHANDLE FLORIDA

CITY           SKY/WX    TMP DP  RH WIND       PRES   REMARKS
PENSACOLA      CLOUDY    70  68  93 SW8       30.11R
MILTON NAS     CLOUDY    69 N/A N/A SW8       30.11S
CRESTVIEW      CLOUDY    72  68  87 S10G17    30.12S
DUKE FIELD     CLOUDY    72  68  88 S14       30.11S
VALPARAISO     MOSUNNY   70  68  94 S10       30.11S
MARY ESTHER    PTSUNNY   70  66  88 S10       30.10S
PANAMA CITY    PTSUNNY   69  66  90 SE9       30.13S
TYNDALL AFB    PTSUNNY   70  70 100 S15       30.14S
APALACHICOLA   MOSUNNY   71  65  81 S10       30.15S

STATION/POSITION SKY/WX   TEMP    WIND        PRES    WAVE   SWELL
                          AIR SEA DIR/SP/G            HT/PER HT/PER
                          (F)     (DEG/KT/KT) (MB)    (FT/S) (FT/S)
30.1N   87.6W              71 68  230/ 10/ 10 1018.9R   4/ 7   3/ 7
29.2N   88.2W              73 74  190/ 10/ 12 1019.4R   4/ 6   3/ 6
28.7N   86.0W              74 74  200/ 12/ 14 1020.9R   2/ 5   2/ 7
PANAMA CITY BEAC           63 62  130/  9/ 10 1020.2S
CAPE SAN BLAS    NOT AVBL
TOWER C                    67     150/ 13/ 13 1021.1R
28.5N   84.5W              72 71  160/  6/  8 1021.5R   1/ 6

$$
FLZ011-016>038-118-127-128-134-139-239-281600-
NORTH FLORIDA

CITY           SKY/WX    TMP DP  RH WIND       PRES   REMARKS
MARIANNA       SUNNY     67  65  93 S16       30.13R
TALLAHASSEE    PTSUNNY   69  59  70 S7        30.16R
PERRY          SUNNY     67  63  89 CALM      30.17R
CROSS CITY       N/A     66  65  96 S3        30.17R
LAKE CITY      CLOUDY    64  64 100 S3        30.17S FOG
GAINESVILLE    CLOUDY    66  65  96 SE5       30.18S FOG
MAYPORT NAS    CLOUDY    68  67  96 SW6       30.17S FOG
JACKSONVILLE   FOG       66  66 100 S8        30.16S VSB 1/4
JAX NAS        FOG       67  64  90 S5        30.18S VSB 3/4
JAX CRAIG      CLOUDY    66  65  96 SW6       30.17S FOG
JAX CECIL      FOG       66  66 100 CALM      30.18S VSB 1/4
FERNANDINA BEA CLOUDY    70  68  94 S7        30.16S VSB<1/4
ST AUGUSTINE   FOG       66  66 100 S5        30.18F VSB 1/4

STATION/POSITION SKY/WX   TEMP    WIND        PRES    WAVE   SWELL
                          AIR SEA DIR/SP/G            HT/PER HT/PER
                          (F)     (DEG/KT/KT) (MB)    (FT/S) (FT/S)
SHELL POINT                62     170/  1/  2   N/A
KEATON BEACH               64     170/  9/ 10 1021.8R
CEDAR KEY                  62      90/  2/  2 1022.4R
FERNANDINA                 64 61  180/  6/  8 1020.9F
30.7N   81.3W                 60                N/A     3/15   2/15
MAYPORT                    65 62  230/  6/  7   N/A
31.4N   80.9W              62 59  180/  6/  8 1021.0S   3/15   3/15
ST AUGUSTINE               65     220/  2/  3 1022.4F

$$
FLZ040-043>046-052-053-057-058-063-144-281600-
INTERIOR CENTRAL FLORIDA

CITY           SKY/WX    TMP DP  RH WIND       PRES   REMARKS
OCALA          CLOUDY    66  64  94 CALM      30.19R FOG
THE VILLAGES   FOG       68  68 100 CALM      30.09S VSB 3/4
LEESBURG       CLOUDY    68  67  96 S6        30.19S FOG
SANFORD        CLOUDY    71  70  96 SW6       30.19R FOG
ORLANDO EXEC   MOSUNNY   72  69  90 S6        30.19R
ORLANDO INTL   PTSUNNY   71  70  96 S7        30.19R
KISSIMMEE      MOSUNNY   70  70 100 CALM      30.20R
WINTER HAVEN   MOSUNNY   71  69  93 S5        30.20S
LAKELAND       FOG       68  68 100 S3        30.19R VSB 1
BARTOW         MOSUNNY   68 N/A N/A S6        30.20R
OKEECHOBEE     SUNNY     70  70 100 S6        30.20R

$$
FLZ041-047-054-059-064-141-147-281600-
EAST CENTRAL FLORIDA

CITY           SKY/WX    TMP DP  RH WIND       PRES   REMARKS
DAYTONA BEACH  FOG       70  69  97 S5        30.19S VSB 1
DELAND         CLOUDY   N/A N/A N/A S5        30.20R VSB 1
NEW SMYRNA BEA FOG       68  68 100 MISG      30.20R VSB 1/4
JFK SPACE CTR  MOSUNNY   71  70  95 SW7       30.19R
TITUSVILLE     MOSUNNY   72  70  94 CALM      30.20R
CAPE CANAVERAL SUNNY     73  71  96 SW7       30.18R
PATRICK AFB    SUNNY     74  73  97 SW7       30.19R
MELBOURNE      SUNNY     77  69  76 SW9       30.19R
VERO BEACH     SUNNY     75  70  84 SW6       30.19S
FT PIERCE      SUNNY     76  70  82 S7        30.19R
STUART         MOSUNNY   73  68  83 S5        30.20R

STATION/POSITION SKY/WX   TEMP    WIND        PRES    WAVE   SWELL
                          AIR SEA DIR/SP/G            HT/PER HT/PER
                          (F)     (DEG/KT/KT) (MB)    (FT/S) (FT/S)
28.5N   80.2W              74 75  230/  8/ 10 1022.1R
28.9N   78.5W              75 77  140/  8/ 10 1022.3R   5/15   5/15
TRIDENT PIER               71 67  220/  7/  8 1021.8R
28.4N   80.5W                 68                N/A     2/14   2/14
27.6N   80.2W                 75                N/A     4/15   3/15

$$
FLZ050-056-061-142-242-148-248-149-249-151-251-155-255-
160-260-281600-
WEST CENTRAL FLORIDA

CITY           SKY/WX    TMP DP  RH WIND       PRES   REMARKS
CRYSTAL RIVER  FAIR      70  66  88 CALM      30.18S
INVERNESS      PTSUNNY   68  68 100 CALM      30.19S FOG
BROOKSVILLE    SUNNY     73  66  78 CALM      30.20R
ZEPHYRHILLS    CLOUDY    64  64 100 CALM      30.20S FOG
CLEARWATER     SUNNY     74  67  78 CALM      30.18S
TAMPA INTL     PTSUNNY   72  66  81 W5        30.19R
TAMPA EXEC     PTSUNNY   72  68  88 SE3       30.19S FOG
PLANT CITY     CLOUDY    70 N/A N/A CALM      30.21S FOG
MACDILL AFB    SUNNY     73  71  94 VRB3      30.19R
PETER O KNIGHT SUNNY     73  68  83 CALM      30.19S HAZE
ST PETERSBURG  SUNNY     70  66  87 CALM      30.17S
SARASOTA       SUNNY     73  68  84 S5        30.17S
VENICE         FAIR      73  70  88 S7        30.19S

STATION/POSITION SKY/WX   TEMP    WIND        PRES    WAVE   SWELL
                          AIR SEA DIR/SP/G            HT/PER HT/PER
                          (F)     (DEG/KT/KT) (MB)    (FT/S) (FT/S)
CEDAR KEY                  62      90/  2/  2 1022.4R
28.5N   84.5W              72 71  160/  6/  8 1021.5R   1/ 6
27.3N   84.3W                 75                N/A     1/ 3
CLEARWATER BEACH           70 67  250/  2/  3 1021.9R
MIDDLE TAMPA BAY           69        CALM     1022.3S
VENICE                     72 67  160/  5/  6 1021.7R

$$
FLZ066-069-070-075>078-162-262-165-265-281600-
SOUTHWEST FLORIDA AND KEYS

CITY           SKY/WX    TMP DP  RH WIND       PRES   REMARKS
PUNTA GORDA    SUNNY     74  69  85 S6        30.21R
FT MYERS       SUNNY     71  69  93 VRB3      30.19R
SOUTHWEST INTL MOSUNNY   68  68 100 E3        30.19R
NAPLES         MOSUNNY   72  69  90 E5        30.18R
MARCO ISLAND   SUNNY     70  68  94 E5        30.18R
MARATHON       SUNNY     79  70  74 SE7       30.16R
KEY WEST NAS   SUNNY     80  67  64 SE12      30.16R
KEY WEST INTL  SUNNY     79  68  69 SE10      30.17R

STATION/POSITION SKY/WX   TEMP    WIND        PRES    WAVE   SWELL
                          AIR SEA DIR/SP/G            HT/PER HT/PER
                          (F)     (DEG/KT/KT) (MB)    (FT/S) (FT/S)
VENICE                     72 67  160/  5/  6 1021.7R
NAPLES                     72 76  110/  4/  6 1022.5R
26.0N   85.6W              75 74  120/  8/  8 1020.7R   3/ 5   3/ 5
DRY TORTUGAS               73      90/ 10/ 10 1020.7R
NW FL BAY                  74      90/  8/  9 1021.4R
SAND KEY                   77     120/ 13/ 16 1021.2R
SOMBRERO KEY               78     130/ 14/ 15 1022.1R
LONG KEY                   77 74  110/  9/ 10 1022.1R
MOLASSES REEF              76 78  130/ 11/ 13 1021.5S

$$
FLZ067-068-071>074-168-172>174-281600-
SOUTHEAST FLORIDA

CITY           SKY/WX    TMP DP  RH WIND       PRES   REMARKS
W PALM BEACH   PTSUNNY   78  70  76 S6        30.18R
FT LAUDER-EXEC MOSUNNY   78  31  17 E13       30.18R
FT LAUDERDALE  PTSUNNY   77  70  79 SE13      30.17S
POMPANO BEACH  MOSUNNY   80  68  66 SE10      30.18R
PEMBROKE PINES PTSUNNY   79  68  69 E9        30.19R
OPA LOCKA      PTSUNNY   78  69  73 SE9       30.18S
MIAMI          MOSUNNY   79  68  69 SE14G20   30.18R
WEST KENDALL   PTSUNNY   79  68  69 SE13      30.18R
HOMESTEAD      MOSUNNY   78  69  74 E8        30.17S

STATION/POSITION SKY/WX   TEMP    WIND        PRES    WAVE   SWELL
                          AIR SEA DIR/SP/G            HT/PER HT/PER
                          (F)     (DEG/KT/KT) (MB)    (FT/S) (FT/S)
PORT EVERGLADES            77     130/  8/ 11 1022.0
VIRGINIA KEY               77 74  130/  7/ 11 1022.4S
LAKE WORTH                 77 76  170/  9/ 10 1022.0R
FOWEY ROCKS                77 77  120/ 13/ 16 1022.0R
SETTLEMENT POINT           76     100/  4/  6 1022.7S

$$



USA.gov is the U.S. government's official web portal to all federal, state and local government web resources and services.